Погода Чернышевский

Хотите узнать прогноз погоды Чернышевский? Тогда Вам сюда: Погода Чернышевский

Поиск расширенной информации на нашем сайте:

Полезная информация:

Новости сайта



02.01.2020
Опубликован Долгосрочный прогноз погоды по городам России и ближнего зарубежья на январь 2020 года.
Карты: Прогноз на январь и февраль 2020 года, Сравнение прогнозируемой аномалии приземной температуры воздуха на январь 2020 года по разным моделям.




Погода Чернышевский - сегодня

Время (UTC), дата Ветер
(°,м/с) 
Видим.   Явления Облачность Т
(°С)
Тd
(°С)
f(%) Тe
(°С)
Pmin
(гПа)
dP
(гПа)
Po
(мм)
O2
(г/м3)
Тmin Tmax R s Состояние
почвы
09 23.11.20 тихо ()   20000 м    4/0 верхняя 
[Ci fib]
-12 -14.7 80 -12  1016.6  1.2  722  305           
12 23.11.20 тихо ()   20000 м    6/0 верхняя 
[Ci fib]
-12.2 -14.2 85 -12  1018.4  1.7  723  306    -10  0.0     
15 23.11.20 360 (С) 20000 м    10/0 средняя, верхняя 
[Ac trans|Ci fib]
-12.2 -14.2 85 -14  1019.4  0.9  724  306           
18 23.11.20 340 (С) 10 км  слаб. снег  10/0 средняя 
[Ac As]
-12 -14 85 -12  1021.9  2.4  725  307           
21 23.11.20 290 (З) 20000 м  {снег}  6/0 средняя, верхняя 
[Ac trans|Ci fib]
-14 -16 85 -18  1023.8  1.4  726  310           
00 24.11.20 280 (З) 20000 м  {снег}  3/0 верхняя 
[Ci fib]
-17.6 -20.2 80 -23  1026.3  1.7  728  315  -17.6    0.0  25  равномерный
сухой снег
100% 
15 24.11.20 280 (З) 20000 м    ясно 
-19.2 -21.8 80 -23  1032.2  0.6  732  319           
18 24.11.20 270 (З) 20000 м    ясно 
-20.6 -23 81 -25  1033.3  0.7  732  321           
21 24.11.20 260 (З) 20000 м    ясно 
-21.6 -24.1 80 -28  1034  0.4  732  322           
00 25.11.20 280 (З) 20000 м  [диам. изморози 6 мм]  ясно 
-23.4 -25.9 80 -30  1035.7  1.3  733  325  -23.4    0.0  26  равномерный
сухой снег
100% 
03 25.11.20 290 (З) 20000 м    ясно 
-23.4 -25.9 80 -29  1035.9  0.2  734  325  -23.6         
06 25.11.20 270 (З) 20000 м    3/0 средняя 
[Ac trans]
-22.6 -25.1 80 -28  1037  1.1  734  324           
09 25.11.20 270 (З) 20000 м    ясно 
-22.4 -24.9 80 -28  1037.2  0.2  735  324           
12 25.11.20 230 (ЮЗ) 20000 м    ясно 
-21 -23.5 80 -28  1037.1  0.3  735  322    -21       
15 25.11.20 270 (З) 20000 м    ясно 
-19.9 -22.5 80 -25  1037.3  0.4  735  321           
18 25.11.20 270 (З) 20000 м    ясно 
-19.5 -22.1 80 -25  1037.2  735  321           
21 25.11.20 260 (З) 20000 м    ясно 
-20.7 -23.2 80 -26  1037.3  -0.1  735  322           
00 26.11.20 260 (З) 20000 м  [диам. изморози 14 мм]  6/0 средняя 
[Ac trans]
-19.6 -22.2 80 -25  1037.4  0.3  735  321  -21    0.0  26  равномерный
сухой снег
100% 
03 26.11.20 250 (З) 10 км  слаб. снег  10/4 300 м средняя 
[Sc|As op]
-17.4 -20 80 -22  1036.7  -0.2  735  318           
06 26.11.20 260 (З) 10 км  слаб. снег  10/0 средняя 
[As op]
-16 -17.9 85 -22  1036.3  735  316           
09 26.11.20 260 (З) 10 км  слаб. снег  10/0 средняя 
[As op]
-16.8 -19.4 80 -23  1037  0.4  735  317           
12 26.11.20 250 (З) 10 км  слаб. снег  10/0 средняя 
[As op]
-17.5 -20.1 80 -24  1037.2  735  318    -16  0.4     
15 26.11.20 250 (З) 20000 м  {снег}  10/0 средняя 
[Ac und]
-18 -20.6 80 -23  1036.3  -0.9  735  318           
18 26.11.20 240 (ЮЗ) 20000 м  {снег}  10/0 средняя, верхняя 
[Ac trans|Cs]
-17.3 -19.2 85 -22  1035.9  -0.2  735  317           
21 26.11.20 260 (З) 20000 м    10/0 средняя, верхняя 
[Ac trans|Cs]
-17.2 -19.1 85 -22  1035.6  -0.3  734  317           
Время (UTC), дата Ветер
(°,м/с) 
Видим.   Явления Облачность Т
(°С)
Тd
(°С)
f(%) Тe
(°С)
Pmin
(гПа)
dP
(гПа)
Po
(мм)
O2
(г/м3)
Тmin Tmax R s Состояние
почвы

Для получения пояснительной информации подведите курсор к названию столбца.

ПОГОДА Чернышевский - архив

Всё, что Вы хотите узнать о погоде Чернышевский - удобно и подробно!

Выберите нужную дату (начиная с 1 января 2019* года) и нажмите кнопку "Найти".
Будут отображены архивные сводки погоды по пункту Чернышевский, начиная с указанной даты.


Отображать данные в формате CSV (для использования в таблицах Excel)


Внимание! Наш архив погоды предназначен исключительно для личного некоммерческого использования в познавательных целях. Если Вам необходимы официальные справки о состоянии погоды (для производственных, юридических, коммерческих и т.п. целей), обращайтесь в органы Росгидромета.

*Примечание: данная дата относится к архиву по метеостанциям СССР (Россия, СНГ, Балтия).
Архив по метеостанциям Зарубежной Европы и Азии (кроме Китая) хранится 10 дней, по другим регионам земного шара (Китай, Африка, Америка, Австралия, Океания) - 1 день.

Чернышевский - район местоположения метеостанции


Название, широта, долгота, высота метеостанции:
Чернышевский 62°ш. 112.5°д. 422 м над ур. моря [Российская Федерация]

Дополнительная информация

В oтличие oт бoльшинства пoгoдных сайтoв мы публикуем пoдрoбную метеoинфoрмацию в детальнoм прoфессиoнальнoм фoрмате.

Характеристики температуры и влажнoсти вoздуха измеряются на высoте 2 м в тени вдали oт зданий и деревьев.
Скoрoсть ветра измеряется на высoте 10 м (на урoвне рoста челoвека скoрoсть ветра ниже в 1.5-2 раза). Если метеoстанция нахoдится в гoрoде или в лесу, тo скoрoсть ветра занижена на 2-4 м/с пo сравнению с oткрытым местoм. Скoрoсть ветра над акватoриями крупных рек и oзёр, а также на вершинах хoлмoв на 2-5 м/с выше, чем в oбычных услoвиях.
Атмoсфернoе давление в разных тoчках местнoсти мoжет значительнo oтличаться oт давления на метеoстанции, в зависимoсти oт услoвий рельефа (при пoдъёме на 10 м давление пoнижается примернo на 1 мм рт.ст.).